Location: ???????
(55.3754°N, 39.3545°E)
Time: 22:27:05
(UTC+00:00)

Aureole 3 - Pass Details

Date: 14 April 2026
Orbit: 372 x 1025 km, 82.5° (Epoch: 13 May)

Event Time Altitude Azimuth Distance (km) Brightness Sun altitude
Rises 17:44:11 0° 350° (N) 2,689 7.6 -10.8°
Reaches altitude 10° 17:46:10 10° 354° (N) 1,882 6.7 -11.0°
Maximum altitude 17:50:18 62° 76° (ENE) 736 3.7 -11.5°
Enters shadow 17:54:48 13° 156° (SSE) 2,071 5.7 -12.0°
